Regional Weather Roundup
Issued by NWS Charleston, SC

Current Version | Previous Version | Graphics & Text | Print | Product List | Glossary On
Versions: 1 2 3 4 5 6 7 8 9 10 11 12 13 14 15 16 17 18 19 20 21 22 23 24 25 26 27 28 29 30 31 32 33 34 35 36 37 38 39 40 41 42 43 44 45 46 47 48 49 50
000 ASUS42 KCHS 042312 RWRCHS REGIONAL WEATHER ROUNDUP NATIONAL WEATHER SERVICE CHARLESTON SC 700 PM EDT SAT JUL 04 2015 NOTE: "FAIR" INDICATES FEW OR NO CLOUDS BELOW 12,000 FEET WITH NO SIGNIFICANT WEATHER AND/OR OBSTRUCTIONS TO VISIBILITY. NOT ALL STATIONS ARE QUALITY CONTROLLED BY THE NATIONAL WEATHER SERVICE. USE DATA WITH CAUTION...ESPECIALLY DEWPOINT OBSERVATIONS. SCZ027-030-031-034>040-042>050-050000- ...SOUTHEAST SOUTH CAROLINA... CITY SKY/WX TMP DP RH WIND PRES REMARKS N CHARLESTON PTSUNNY 85 74 69 S13 30.04F HX 92 WATERFRONT PAR N/A 84 77 79 S10 30.04S HX 94 MOUNT PLEASANT LGT RAIN 86 75 70 S12 30.05F HX 95 JOHNS ISLAND FAIR 84 75 74 S10 30.06S HX 92 PINOPOLIS NOT AVBL MONCKS CORNER FAIR 90 70 51 SW8 30.03F HX 95 SUMMERVILLE FAIR 88 73 62 CALM 30.04F HX 96 BEAUFORT MCAS TSTM 73 72 96 SE3 30.10R BEAUFORT ARPT TSTM 73 70 88 S9G18 30.12R HILTON HEAD IS TSTM 73 72 94 SW16G25 30.14R WALTERBORO MOCLDY 77 64 65 W24G39 30.06R THUNDER ALLENDALE LGT RAIN 75 70 83 S5 30.04F ...SOUTHERN MIDLANDS AND PEE DEE... CITY SKY/WX TMP DP RH WIND PRES REMARKS GEORGETOWN NOT AVBL KINGSTREE NOT AVBL ORANGEBURG MOSUNNY 86 71 60 SW8 30.02F HX 91 BARNWELL FAIR 84 73 70 SW9 30.04F HX 91 AIKEN NOT AVBL MANNING FAIR 86 68 54 SW10 30.02F HAZE COLUMBIA PTSUNNY 88 68 51 SW8 30.01S HX 91 SUMTER SUNNY 87 70 56 SW8 30.00F HX 92 FLORENCE MOSUNNY 87 69 54 SW14 30.01S HX 91 MYRTLE BEACH SUNNY 84 73 70 S17 30.04S HX 91 N MYRTLE BEACH FAIR 84 75 74 S17 30.03S HX 92 $$ GAZ063-065-086>088-099>101-113>116-118-119-134>141-150-050000- ...SOUTHEAST GEORGIA... CITY SKY/WX TMP DP RH WIND PRES REMARKS SAVANNAH ARPT CLOUDY 76 69 79 S14 30.11R THUNDER HUNTER AAF RAIN 72 72 100 S6 30.09F FOG FORT STEWART CLOUDY 75 72 88 SE7 30.10S THUNDER STATESBORO NOT AVBL SYLVANIA CLOUDY 74 73 97 S5 30.08F CLAXTON FAIR 75 73 94 SE5 30.09R ...CSRA...CENTRAL AND FAR SOUTHEAST GEORGIA... CITY SKY/WX TMP DP RH WIND PRES REMARKS THOMSON CLOUDY 85 74 71 SW6 30.07F HX 92 AUGUSTA-BUSH CLOUDY 83 70 64 SW8 30.01F AUGUSTA-DANIEL CLOUDY 84 69 60 SW9 30.04F SWAINSBORO FAIR 81 73 78 S6 30.06F VIDALIA RAIN 79 70 73 S3 30.07S EASTMAN FAIR 81 73 76 CALM 30.08R HAZLEHURST LGT RAIN 75 75 100 CALM 30.06R ALMA CLOUDY 75 73 93 SE5 30.07F WAYCROSS TSTM 80 74 83 SE8 30.09F JESUP DRIZZLE 77 73 88 SE7 30.10F BAXLEY LGT RAIN 75 72 88 SE6 30.07S BRUNSWICK CLOUDY 79 72 78 W8 30.14R SAINT SIMONS CLOUDY 76 72 87 NW8 30.13R $$ SCZ027-028-034-036>038-045-046-048>050-GAZ119-141-050000- ...LAKE AND SUPPLEMENTAL COASTAL OBSERVATIONS... STATION/POSITION TIME TEMP WIND PRES WAVE SWELL AIR SEA DIR/SP/G HT/PER HT/PER/DIR (UTC) (F) (DEG/KT/KT) (MB) (FT/S) (FT/S/D) UPR LAKE MARION NOT AVBL WINYAH BAY NOT AVBL LAKE MURRAY 2200 86 250/ 12/ 17 1015.9S ACE BASIN NERRS NOT AVBL FORT PULASKI 2200 72 85 250/ 16/ 22 1020.3R SAPELO ISLAND 2200 74 50/ 3 1018.0F $$ ANZ835-935-AMZ111-154-330-350-352-354-370-450-454-472-050000- ...C-MAN AND BUOY OBSERVATIONS... STATION/POSITION TIME TEMP WIND PRES WAVE SWELL AIR SEA DIR/SP/G HT/PER HT/PER/DIR (UTC) (F) (DEG/KT/KT) (MB) (FT/S) (FT/S/D) BUOY 41004 2250 82 82 210/ 14/ 16 1017.6F 3/ 9 2/ 9 BUOY 41008 2250 78 79 290/ 6/ 8 1019.8R 3/ 9 2/100/ 9 FOLLY BEACH CMAN 2200 82 190/ 15/ 17 1018.2F CAPERS NEARSHORE 2208 82 210/ 16/ 19 1018.5R FRIPP NEARSHORE 2200 83 190/ 16/ 19 1017.9 STATION/POSITION TIME TEMP WIND PRES WAVE SWELL AIR SEA DIR/SP/G HT/PER HT/PER/DIR (UTC) (F) (DEG/KT/KT) (MB) (FT/S) (FT/S/D) 5E ST. MARYS GA 2221 77 N/A 2/ 9 FRYING PAN BUOY 2250 81 79 220/ 12/ 14 1018.0R 4/ 6 2/140/ 9 BUOY 41025 2250 82 81 220/ 21/ 25 1015.5S 6/ 7 2/260/14 CAPE LOOKOUT NC 2200 82 220/ 15/ 19 1015.9S BUOY 41002 2250 82 81 230/ 8/ 10 1020.7R 5/ 9 5/140/ 9 BUOY 41010 2220 83 85 140/ 12/ 14 1020.0F ST AUGUSTINE FL 2300 77 77 140/ 8/ 8 1020.3S $$

USA.gov is the U.S. government's official web portal to all federal, state and local government web resources and services.